Newport News, VA

7:01 AM EDT on May 27, 2017 (GMT -0400)
Newport News-Williamsburg International

Weather History for KPHF - November, 2012

Change the Weather History Date:

Thursday, November 22, 2012

  Actual Average Record
Temperature  
Mean Temperature 50 °F -  
Max Temperature 60 °F 57 °F 78 °F (1953)
Min Temperature 39 °F 39 °F 24 °F (2000)
Degree Days  
Heating Degree Days 16    
Moisture  
Dew Point 37 °F    
Average Humidity 69    
Maximum Humidity 86    
Minimum Humidity 46    
Precipitation  
Precipitation 0.00 in - - ()
Sea Level Pressure  
Sea Level Pressure 30.18 in    
Wind  
Wind Speed 7 mph (NNE)    
Max Wind Speed 14 mph    
Max Gust Speed 21 mph    
Visibility 10 miles    
Events      
Averages and records for this station are not official NWS values.
T = Trace of Precipitation, MM = Missing Value Source: NWS Daily Summary

Daily Weather History Graph

Daily Weather History Graph

Search for Another Location

Airport or City:

Trip Planner

Search our weather history database for the weather conditions in past years. The results will help you decide how hot, cold, wet, or windy it might be!

Date:

Astronomy

Nov. 22, 2012 Rise Set
Actual Time 6:52 AM EST 4:51 PM EST
Civil Twilight 6:24 AM EST 5:19 PM EST
Nautical Twilight 5:52 AM EST 5:51 PM EST
Astronomical Twilight 5:21 AM EST 6:22 PM EST
Moon 1:30 PM EST (11/22) 1:17 AM EST (11/22)
Length of Visible Light 10h 55m
Length of Day
9h 59m
Waxing Gibbous, 71% of the Moon is Illuminated
Nov 22
Waxing Gibbous
Nov 28
Full
Dec 6
Last Quarter
Dec 13
New
Dec 20
First Quarter

Hourly Weather History & Observations

Time (EST) Temp. Windchill Dew Point Humidity Pressure Visibility Wind Dir Wind Speed Gust Speed Precip Events Conditions
12:54 AM 43.0 °F 39.5 °F 37.0 °F 80% 30.16 in 10.0 mi NNE 5.8 mph - N/A   Clear
1:54 AM 43.0 °F 39.5 °F 37.9 °F 82% 30.16 in 10.0 mi North 5.8 mph - N/A   Clear
2:54 AM 43.0 °F 38.8 °F 37.0 °F 80% 30.16 in 10.0 mi North 6.9 mph - N/A   Clear
3:54 AM 42.1 °F 37.7 °F 36.0 °F 79% 30.15 in 10.0 mi North 6.9 mph - N/A   Clear
4:54 AM 43.0 °F 38.8 °F 37.0 °F 80% 30.16 in 10.0 mi North 6.9 mph - N/A   Clear
5:54 AM 43.0 °F 38.2 °F 36.0 °F 76% 30.17 in 10.0 mi North 8.1 mph - N/A   Clear
6:54 AM 43.0 °F 37.7 °F 36.0 °F 76% 30.19 in 10.0 mi North 9.2 mph - N/A   Clear
7:54 AM 45.0 °F 39.7 °F 37.0 °F 74% 30.21 in 10.0 mi North 10.4 mph - N/A   Clear
8:54 AM 48.0 °F - 39.0 °F 71% 30.22 in 10.0 mi NNE 9.2 mph - N/A   Clear
9:54 AM 53.1 °F - 39.9 °F 61% 30.23 in 10.0 mi NNE 9.2 mph 17.3 mph N/A   Clear
10:54 AM 55.9 °F - 39.9 °F 55% 30.22 in 10.0 mi North 10.4 mph 19.6 mph N/A   Clear
11:54 AM 57.0 °F - 37.9 °F 49% 30.19 in 10.0 mi North 13.8 mph 20.7 mph N/A   Clear
12:54 PM 59.0 °F - 37.9 °F 46% 30.17 in 10.0 mi North 12.7 mph - N/A   Clear
1:54 PM 60.1 °F - 39.0 °F 46% 30.16 in 10.0 mi NNE 9.2 mph - N/A   Clear
2:54 PM 60.1 °F - 39.9 °F 47% 30.16 in 10.0 mi NNE 9.2 mph - N/A   Clear
3:54 PM 57.9 °F - 39.0 °F 49% 30.17 in 10.0 mi NNE 10.4 mph - N/A   Clear
4:54 PM 53.1 °F - 39.0 °F 59% 30.17 in 10.0 mi NNE 4.6 mph - N/A   Clear
5:54 PM 46.9 °F - 37.9 °F 71% 30.18 in 10.0 mi Calm Calm - N/A   Clear
6:54 PM 44.1 °F - 37.0 °F 76% 30.18 in 10.0 mi Calm Calm - N/A   Clear
7:54 PM 43.0 °F 41.3 °F 36.0 °F 76% 30.18 in 10.0 mi North 3.5 mph - N/A   Clear
8:54 PM 42.1 °F - 36.0 °F 79% 30.18 in 10.0 mi Calm Calm - N/A   Clear
9:54 PM 42.1 °F - 35.1 °F 76% 30.17 in 10.0 mi Calm Calm - N/A   Clear
10:54 PM 39.9 °F - 36.0 °F 86% 30.16 in 9.0 mi Calm Calm - N/A   Clear
11:54 PM 39.9 °F - 35.1 °F 83% 30.15 in 9.0 mi Calm Calm - N/A   Clear